CW4629 Weather Reports


Display with metric or nautical units.
time (UTC)temp
F
wind
direction
speed
MPH
gust
MPH
rain 1hr
in
rain 24hr
in
rain mn
in
humidity
%
barometer
mb
20260905090036 66 112 0.0 0.0 0.00 0.00 0.00 37 1016.6
20260905085116 67 112 0.0 1.0 0.00 0.00 0.00 35 1016.4
20260905083216 66 337 0.0 0.0 0.00 0.00 0.00 39 1016.6
20260905082217 66 337 0.0 0.0 0.00 0.00 0.00 39 1016.5
20260905081233 67 337 0.0 0.0 0.00 0.00 0.00 38 1016.4
20260905080235 67 337 1.0 1.0 0.00 0.00 0.00 36 1016.5
20260905075320 68 315 0.0 0.0 0.00 0.00 0.00 35 1016.4
20260905074416 68 290 1.0 2.0 0.00 0.00 0.00 35 1016.3
20260905073418 68 22 0.0 1.0 0.00 0.00 0.00 37 1016.1
20260905072515 69 22 0.0 0.0 0.00 0.00 0.00 35 1016.1
20260905070617 69 22 0.0 0.0 0.00 0.00 0.00 36 1015.7
20260905065632 70 22 0.0 0.0 0.00 0.00 0.00 34 1015.7
20260905064616 71 22 0.0 0.0 0.00 0.00 0.00 32 1015.6
20260905063632 72 292 0.0 0.0 0.00 0.00 0.00 30 1015.5
20260905062719 72 292 0.0 1.0 0.00 0.00 0.00 29 1015.5
20260905061717 71 22 2.0 3.0 0.00 0.00 0.00 31 1015.3
20260905060816 72 283 1.0 3.0 0.00 0.00 0.00 30 1015.4
20260905060733 72 274 2.0 3.0 0.00 0.00 0.00 29 1015.2
20260905055743 72 337 1.0 1.0 0.00 0.00 0.00 30 1015.1
20260905054828 72 292 0.0 0.0 0.00 0.00 0.00 32 1015.1
20260905053844 72 297 0.0 1.0 0.00 0.00 0.00 29 1015.0
20260905053728 72 15 0.0 0.0 0.00 0.00 0.00 29 1014.9
20260905052728 73 22 0.0 0.0 0.00 0.00 0.00 30 1015.2
20260905051745 74 90 0.0 0.0 0.00 0.00 0.00 28 1014.9
20260905050728 76 90 0.0 0.0 0.00 0.00 0.00 25 1014.9
20260905045744 75 90 0.0 1.0 0.00 0.00 0.00 25 1014.6
20260905044825 75 90 0.0 2.0 0.00 0.00 0.00 26 1014.5
20260905043843 75 333 0.0 0.0 0.00 0.00 0.00 28 1014.7
20260905042826 75 315 2.0 2.0 0.00 0.00 0.00 30 1014.6
20260905041844 76 315 0.0 0.0 0.00 0.00 0.00 28 1014.5
20260905040926 77 315 0.0 0.0 0.00 0.00 0.00 26 1014.4
20260905035927 78 315 0.0 0.0 0.00 0.00 0.00 24 1014.3
20260905034944 80 112 0.0 0.0 0.00 0.00 0.00 22 1014.1
20260905034843 80 112 0.0 0.0 0.00 0.00 0.00 21 1014.2
20260905033928 80 112 0.0 1.0 0.00 0.00 0.00 22 1014.1
20260905033027 81 202 0.0 0.0 0.00 0.00 0.00 21 1014.1
20260905032026 82 202 0.0 0.0 0.00 0.00 0.00 19 1013.9
20260905030127 83 225 0.0 0.0 0.00 0.00 0.00 19 1013.6
20260905025227 84 112 0.0 0.0 0.00 0.00 0.00 18 1013.3
20260905024226 85 112 1.0 2.0 0.00 0.00 0.00 19 1013.2
20260905023228 86 225 0.0 0.0 0.00 0.00 0.00 16 1013.1
20260905022243 87 225 2.0 3.0 0.00 0.00 0.00 16 1013.0
20260905022127 87 225 2.0 3.0 0.00 0.00 0.00 16 1012.9
20260905021126 88 259 3.0 4.0 0.00 0.00 0.00 16 1013.0
20260905015242 89 226 4.0 7.0 0.00 0.00 0.00 17 1012.8
20260905014327 90 219 7.0 10.0 0.00 0.00 0.00 17 1012.8
20260905013343 90 255 6.0 9.0 0.00 0.00 0.00 17 1012.8
20260905011427 91 250 4.0 7.0 0.00 0.00 0.00 18 1012.6
20260905010445 91 219 6.0 9.0 0.00 0.00 0.00 18 1012.6
20260905005526 92 237 7.0 9.0 0.00 0.00 0.00 19 1012.5
20260905004542 92 235 5.0 7.0 0.00 0.00 0.00 17 1012.5
20260905003542 92 209 4.0 7.0 0.00 0.00 0.00 18 1012.5
20260905002626 92 224 5.0 7.0 0.00 0.00 0.00 17 1012.7
20260905001629 93 235 8.0 16.0 0.00 0.00 0.00 18 1012.5
20260905000643 93 235 11.0 19.0 0.00 0.00 0.00 18 1012.8
20260904235628 93 206 12.0 18.0 0.00 0.00 0.00 18 1012.5
20260904234644 93 245 8.0 13.0 0.00 0.00 0.00 18 1012.5
20260904232744 95 228 7.0 11.0 0.00 0.00 0.00 17 1012.4
20260904231825 94 201 7.0 14.0 0.00 0.00 0.00 17 1012.4
20260904230842 94 238 13.0 18.0 0.00 0.00 0.00 19 1012.4
20260904225826 94 227 7.0 13.0 0.00 0.00 0.00 19 1012.4
20260904224843 96 226 13.0 18.0 0.00 0.00 0.00 16 1012.4
20260904223942 95 182 5.0 7.0 0.00 0.00 0.00 16 1012.5
20260904223025 94 226 11.0 18.0 0.00 0.00 0.00 18 1012.7
20260904222025 94 280 5.0 8.0 0.00 0.00 0.00 19 1012.8
20260904221027 94 252 10.0 17.0 0.00 0.00 0.00 19 1012.8
20260904220127 95 215 8.0 10.0 0.00 0.00 0.00 19 1012.9
20260904215126 95 221 13.0 17.0 0.00 0.00 0.00 18 1013.0
20260904214127 95 240 9.0 14.0 0.00 0.00 0.00 18 1013.0
20260904213141 93 219 6.0 11.0 0.00 0.00 0.00 20 1013.2
20260904212125 94 240 6.0 9.0 0.00 0.00 0.00 20 1013.3
20260904211127 94 230 7.0 9.0 0.00 0.00 0.00 19 1013.4
20260904210144 94 165 6.0 9.0 0.00 0.00 0.00 19 1013.5
20260904210026 94 184 4.0 6.0 0.00 0.00 0.00 20 1013.5
20260904205027 93 244 9.0 14.0 0.00 0.00 0.00 19 1013.7
20260904204028 93 179 9.0 15.0 0.00 0.00 0.00 18 1013.7
20260904203028 92 231 5.0 10.0 0.00 0.00 0.00 18 1013.8
20260904202126 92 260 5.0 8.0 0.00 0.00 0.00 17 1014.0
20260904195226 91 242 4.0 7.0 0.00 0.00 0.00 18 1014.3
20260904193225 91 239 9.0 14.0 0.00 0.00 0.00 19 1014.4
20260904192224 91 205 6.0 11.0 0.00 0.00 0.00 18 1014.6
20260904192126 91 203 6.0 9.0 0.00 0.00 0.00 19 1014.7
20260904190241 91 188 10.0 16.0 0.00 0.00 0.00 19 1014.7
20260904185326 91 196 9.0 15.0 0.00 0.00 0.00 20 1014.7
20260904183326 91 195 12.0 16.0 0.00 0.00 0.00 21 1014.8
20260904182327 90 222 6.0 9.0 0.00 0.00 0.00 21 1014.9
20260904182241 91 244 8.0 13.0 0.00 0.00 0.00 21 1014.9
20260904181240 91 162 5.0 8.0 0.00 0.00 0.00 20 1015.3
20260904180227 89 175 4.0 6.0 0.00 0.00 0.00 21 1015.3
20260904174243 89 197 5.0 8.0 0.00 0.00 0.00 21 1015.5
20260904173225 88 132 3.0 7.0 0.00 0.00 0.00 22 1015.4
20260904171243 88 190 6.0 9.0 0.00 0.00 0.00 21 1015.6
20260904170242 87 129 3.0 6.0 0.00 0.00 0.00 22 1015.7
20260904165227 86 114 5.0 7.0 0.00 0.00 0.00 22 1015.7
20260904164241 85 106 4.0 7.0 0.00 0.00 0.00 24 1015.9
20260904163242 84 200 2.0 4.0 0.00 0.00 0.00 25 1015.9
20260904162226 83 188 4.0 6.0 0.00 0.00 0.00 24 1016.0
20260904161226 83 202 3.0 4.0 0.00 0.00 0.00 25 1015.9
20260904160227 82 180 3.0 4.0 0.00 0.00 0.00 26 1015.9
20260904154240 80 179 2.0 4.0 0.00 0.00 0.00 26 1016.0
20260904152324 78 180 0.0 2.0 0.00 0.00 0.00 30 1016.0
20260904151326 77 360 0.0 0.0 0.00 0.00 0.00 32 1016.0
20260904150342 76 360 0.0 0.0 0.00 0.00 0.00 32 1015.9
20260904145425 75 360 1.0 1.0 0.00 0.00 0.00 35 1016.0
20260904144524 73 360 0.0 0.0 0.00 0.00 0.00 38 1016.0
20260904143527 70 315 0.0 0.0 0.00 0.00 0.00 40 1016.0
20260904142525 69 318 1.0 2.0 0.00 0.00 0.00 40 1015.9
20260904141624 68 337 0.0 0.0 0.00 0.00 0.00 41 1016.0
20260904135625 64 360 0.0 1.0 0.00 0.00 0.00 44 1015.6
20260904135542 64 360 0.0 0.0 0.00 0.00 0.00 44 1015.6
20260904134642 63 360 1.0 2.0 0.00 0.00 0.00 48 1015.5
20260904133626 61 360 0.0 1.0 0.00 0.00 0.00 49 1015.4
20260904132540 60 360 1.0 2.0 0.00 0.00 0.00 52 1015.3
20260904131525 60 22 0.0 0.0 0.00 0.00 0.00 51 1015.1
20260904130540 61 22 0.0 0.0 0.00 0.00 0.00 50 1014.9
20260904125526 61 337 0.0 0.0 0.00 0.00 0.00 48 1014.9
20260904124526 62 90 0.0 1.0 0.00 0.00 0.00 47 1014.6
20260904122526 63 90 0.0 0.0 0.00 0.00 0.00 43 1014.5
20260904121623 62 11 2.0 2.0 0.00 0.00 0.00 43 1014.5
20260904121527 62 360 2.0 2.0 0.00 0.00 0.00 43 1014.4
20260904120624 62 22 1.0 1.0 0.00 0.00 0.00 42 1014.4
20260904113742 63 157 0.0 0.0 0.00 0.00 0.00 41 1014.2
20260904112826 64 270 0.0 0.0 0.00 0.00 0.00 40 1014.4
20260904110943 66 270 0.0 1.0 0.00 0.00 0.00 36 1014.2
20260904110025 66 75 2.0 3.0 0.00 0.00 0.00 35 1014.3
20260904105026 66 168 0.0 0.0 0.00 0.00 0.00 34 1014.3
20260904104123 67 90 0.0 0.0 0.00 0.00 0.00 32 1013.9
20260904104040 67 90 0.0 0.0 0.00 0.00 0.00 32 1014.0
20260904103126 64 66 3.0 5.0 0.00 0.00 0.00 39 1013.8
20260904102224 64 360 0.0 2.0 0.00 0.00 0.00 38 1013.8
20260904101224 65 360 0.0 0.0 0.00 0.00 0.00 35 1013.8
20260904100240 65 360 2.0 3.0 0.00 0.00 0.00 34 1013.5
20260904095324 65 247 0.0 1.0 0.00 0.00 0.00 35 1013.4
20260904094325 66 292 0.0 0.0 0.00 0.00 0.00 35 1013.4
20260904093341 67 341 3.0 4.0 0.00 0.00 0.00 30 1013.3
20260904092426 67 346 2.0 3.0 0.00 0.00 0.00 31 1013.4
20260904090424 68 247 2.0 2.0 0.00 0.00 0.00 28 1013.4